Weather History for Centralia, IL

Change the Weather History Date:

Sunday, June 9, 2013

  Actual Average (KSLO) Record (KSLO)
Temperature  
Mean Temperature 74 °F -  
Max Temperature 83 °F 83 °F 97 °F (1963)
Min Temperature 64 °F 61 °F 47 °F (1977)
Cooling Degree Days 8    
Growing Degree Days 24 (Base 50)    
Moisture  
Dew Point 62 °F    
Average Humidity 73    
Maximum Humidity 94    
Minimum Humidity 44    
Precipitation  
Precipitation 0.67 in - - ()
Sea Level Pressure  
Sea Level Pressure 29.91 in    
Wind  
Wind Speed 5 mph (SSE)    
Max Wind Speed 21 mph    
Max Gust Speed 26 mph    
Visibility 9 miles    
Events Rain , Thunderstorm    
Averages and records for this station are not official NWS values.
T = Trace of Precipitation, MM = Missing Value Source: NWS Daily Summary

Daily Weather History Graph

Daily Weather History Graph

Search for Another Location

Airport:

Trip Planner

Search our weather history database for the weather conditions in past years. The results will help you decide how hot, cold, wet, or windy it might be!

Date:

Astronomy

Jun. 09, 2013 Rise Set
Actual Time 5:31 AM CDT 8:19 PM CDT
Civil Twilight 5:00 AM CDT 8:51 PM CDT
Nautical Twilight 4:20 AM CDT 9:31 PM CDT
Astronomical Twilight 3:35 AM CDT 10:16 PM CDT
Moon 6:27 AM CDT (6/9) 9:07 PM CDT (6/9)
Length of Visible Light 15h 51m
Length of Day
14h 47m
New Moon, 1% of the Moon is Illuminated
Jun 9
New Moon
Jun 16
First Quarter
Jun 23
Full
Jun 29
Last Quarter
Jul 8
New

Hourly Weather History & Observations

Time (CDT) Temp. Heat Index Dew Point Humidity Pressure Visibility Wind Dir Wind Speed Gust Speed Precip Events Conditions
12:15 AM 68.5 °F - 61.2 °F 77% 29.98 in 10.0 mi Calm Calm - N/A   Mostly Cloudy
12:35 AM 68.9 °F - 60.8 °F 75% 29.98 in 10.0 mi Calm Calm - N/A   Mostly Cloudy
12:55 AM 68.9 °F - 60.6 °F 75% 29.98 in 10.0 mi Calm Calm - N/A   Mostly Cloudy
1:15 AM 68.0 °F - 61.2 °F 79% 29.98 in 10.0 mi Calm Calm - N/A   Mostly Cloudy
1:35 AM 68.5 °F - 60.4 °F 75% 29.98 in 10.0 mi Calm Calm - N/A   Mostly Cloudy
1:55 AM 68.9 °F - 60.1 °F 73% 29.98 in 10.0 mi SE 4.6 mph - N/A   Scattered Clouds
2:15 AM 69.1 °F - 59.5 °F 72% 29.98 in 10.0 mi SSE 8.1 mph - N/A   Mostly Cloudy
2:35 AM 69.8 °F - 59.7 °F 70% 29.98 in 10.0 mi SSE 8.1 mph - N/A   Overcast
2:55 AM 69.8 °F - 59.9 °F 71% 29.97 in 10.0 mi SSE 8.1 mph - N/A   Overcast
3:15 AM 69.8 °F - 59.9 °F 71% 29.97 in 10.0 mi SE 6.9 mph - N/A   Mostly Cloudy
3:35 AM 69.4 °F - 59.9 °F 72% 29.97 in 10.0 mi SE 5.8 mph - N/A   Mostly Cloudy
3:55 AM 69.8 °F - 59.9 °F 71% 29.97 in 10.0 mi SSE 8.1 mph - N/A   Mostly Cloudy
4:15 AM 69.8 °F - 60.3 °F 72% 29.97 in 10.0 mi SSE 8.1 mph - N/A   Mostly Cloudy
4:35 AM 69.6 °F - 59.9 °F 71% 29.97 in 10.0 mi SSE 8.1 mph - N/A   Mostly Cloudy
4:55 AM 69.1 °F - 59.9 °F 72% 29.97 in 10.0 mi SSE 6.9 mph - N/A   Scattered Clouds
5:15 AM 69.4 °F - 59.9 °F 72% 29.96 in 10.0 mi SSE 8.1 mph - N/A   Mostly Cloudy
5:35 AM 69.3 °F - 59.9 °F 72% 29.96 in 10.0 mi SSE 8.1 mph - N/A   Mostly Cloudy
5:55 AM 69.4 °F - 59.9 °F 72% 29.96 in 10.0 mi SSE 8.1 mph - N/A   Mostly Cloudy
6:15 AM 69.8 °F - 59.4 °F 69% 29.96 in 10.0 mi SSE 9.2 mph - N/A   Overcast
6:35 AM 70.0 °F - 59.2 °F 68% 29.96 in 10.0 mi SSE 9.2 mph - N/A   Scattered Clouds
6:55 AM 70.7 °F - 59.5 °F 68% 29.96 in 10.0 mi SSE 9.2 mph - N/A   Clear
7:15 AM 71.6 °F - 60.1 °F 67% 29.97 in 10.0 mi SSE 9.2 mph - N/A   Scattered Clouds
7:35 AM 73.2 °F - 60.8 °F 65% 29.96 in 10.0 mi SSE 9.2 mph - N/A   Scattered Clouds
7:55 AM 73.0 °F - 61.0 °F 66% 29.96 in 10.0 mi SSE 6.9 mph - N/A   Scattered Clouds
8:15 AM 75.2 °F - 61.7 °F 63% 29.96 in 10.0 mi SSE 9.2 mph - N/A   Scattered Clouds
8:35 AM 74.8 °F - 61.5 °F 63% 29.96 in 10.0 mi SSE 8.1 mph - N/A   Mostly Cloudy
8:55 AM 74.3 °F - 62.1 °F 65% 29.97 in 10.0 mi SSE 8.1 mph - N/A   Overcast
9:15 AM 75.2 °F - 62.8 °F 65% 29.96 in 10.0 mi SSE 4.6 mph - N/A   Mostly Cloudy
9:35 AM 76.8 °F - 63.5 °F 63% 29.96 in 10.0 mi SSE 8.1 mph - N/A   Scattered Clouds
9:55 AM 78.3 °F - 62.4 °F 58% 29.95 in 10.0 mi SSE 9.2 mph - N/A   Clear
10:15 AM 79.7 °F - 63.3 °F 57% 29.95 in 10.0 mi SSE 10.4 mph - N/A   Clear
10:35 AM 81.0 °F 82.2 °F 63.0 °F 54% 29.95 in 10.0 mi SE 9.2 mph - N/A   Scattered Clouds
10:55 AM 82.4 °F 83.2 °F 61.9 °F 50% 29.94 in 10.0 mi SSE 9.2 mph - N/A   Clear
11:15 AM 82.4 °F 82.9 °F 60.8 °F 48% 29.93 in 10.0 mi South 10.4 mph - N/A   Scattered Clouds
11:35 AM 82.9 °F 83.2 °F 60.3 °F 46% 29.93 in 10.0 mi SSE 9.2 mph - N/A   Scattered Clouds
11:55 AM 83.1 °F 83.0 °F 58.8 °F 44% 29.92 in 10.0 mi SSE 16.1 mph 21.9 mph N/A   Clear
12:15 PM 81.9 °F 81.8 °F 57.7 °F 44% 29.92 in 10.0 mi SSE 15.0 mph 23.0 mph N/A   Clear
12:35 PM 81.0 °F 81.2 °F 58.5 °F 46% 29.92 in 10.0 mi South 13.8 mph - N/A   Scattered Clouds
12:55 PM 80.6 °F 81.2 °F 59.9 °F 49% 29.92 in 10.0 mi SSE 13.8 mph - N/A   Scattered Clouds
1:15 PM 81.3 °F 82.5 °F 62.8 °F 53% 29.90 in 10.0 mi SSE 9.2 mph - N/A   Scattered Clouds
1:35 PM 81.5 °F 82.5 °F 62.4 °F 52% 29.90 in 10.0 mi SSE 9.2 mph - N/A   Clear
1:55 PM 82.0 °F 83.1 °F 62.6 °F 52% 29.87 in 10.0 mi SE 12.7 mph - N/A   Clear
2:15 PM 81.5 °F 82.1 °F 60.8 °F 49% 29.85 in 10.0 mi SE 12.7 mph 18.4 mph N/A   Clear
2:35 PM 79.9 °F - 63.3 °F 57% 29.86 in 7.0 mi SE 9.2 mph - N/A   Clear
2:55 PM 79.7 °F - 64.0 °F 59% 29.86 in 10.0 mi SE 8.1 mph - N/A   Clear
3:15 PM 78.8 °F - 64.0 °F 60% 29.87 in 10.0 mi SSE 5.8 mph - N/A   Scattered Clouds
3:35 PM 77.9 °F - 64.8 °F 64% 29.86 in 10.0 mi SSE 6.9 mph - N/A Thunderstorm Mostly Cloudy
3:55 PM 71.2 °F - 63.7 °F 77% 29.87 in 10.0 mi West 20.7 mph 26.5 mph N/A Rain , Thunderstorm Light Thunderstorms and Rain
4:15 PM 68.2 °F - 65.3 °F 90% 29.88 in 1.2 mi West 12.7 mph 26.5 mph 0.34 in Rain , Thunderstorm Heavy Thunderstorms and Rain
4:35 PM 68.5 °F - 65.8 °F 91% 29.87 in 7.0 mi West 8.1 mph - 0.57 in Rain , Thunderstorm Light Thunderstorms and Rain
4:55 PM 69.4 °F - 66.6 °F 91% 29.85 in 10.0 mi Calm Calm - 0.57 in   Scattered Clouds
5:15 PM 70.0 °F - 66.7 °F 89% 29.85 in 10.0 mi West 3.5 mph - N/A   Mostly Cloudy
5:35 PM 70.2 °F - 66.9 °F 89% 29.84 in 10.0 mi West 3.5 mph - N/A Thunderstorm Mostly Cloudy
5:55 PM 70.9 °F - 67.1 °F 88% 29.85 in 10.0 mi Calm Calm - N/A   Scattered Clouds
6:15 PM 70.7 °F - 67.3 °F 89% 29.85 in 10.0 mi South 3.5 mph - N/A   Scattered Clouds
6:35 PM 69.6 °F - 66.0 °F 88% 29.87 in 3.0 mi WSW 9.2 mph - 0.06 in Rain Heavy Rain
6:55 PM 69.1 °F - 65.3 °F 88% 29.84 in 7.0 mi Calm Calm - 0.09 in Rain Light Rain
7:15 PM 69.4 °F - 65.3 °F 87% 29.83 in 10.0 mi Calm Calm - N/A Rain Light Rain
7:35 PM 69.3 °F - 65.5 °F 88% 29.83 in 10.0 mi Calm Calm - 0.01 in   Clear
7:55 PM 69.4 °F - 66.2 °F 89% 29.83 in 10.0 mi Calm Calm - 0.01 in   Clear
8:15 PM 69.3 °F - 66.2 °F 90% 29.83 in 10.0 mi Calm Calm - N/A   Scattered Clouds
8:35 PM 68.2 °F - 65.5 °F 91% 29.83 in 10.0 mi Calm Calm - N/A   Scattered Clouds
8:55 PM 67.5 °F - 65.3 °F 93% 29.83 in 7.0 mi Calm Calm - N/A   Scattered Clouds
9:15 PM 67.1 °F - 64.9 °F 93% 29.84 in 10.0 mi Calm Calm - N/A   Clear
9:35 PM 66.7 °F - 64.8 °F 93% 29.84 in 7.0 mi Calm Calm - N/A   Clear
9:55 PM 66.7 °F - 64.8 °F 93% 29.84 in 7.0 mi Calm Calm - N/A   Clear
10:15 PM 66.2 °F - 64.4 °F 94% 29.84 in 3.0 mi Calm Calm - N/A   Clear
10:35 PM 65.5 °F - 63.7 °F 94% 29.84 in 2.5 mi Calm Calm - N/A   Clear
10:55 PM 64.8 °F - 63.0 °F 94% 29.84 in 2.5 mi Calm Calm - N/A   Clear
11:15 PM 64.8 °F - 63.0 °F 94% 29.84 in 1.5 mi SW 3.5 mph - N/A   Mist
11:35 PM 64.4 °F - 62.8 °F 94% 29.84 in 4.0 mi South 3.5 mph - N/A   Clear
11:55 PM 64.6 °F - 63.0 °F 94% 29.84 in 7.0 mi SSW 3.5 mph - N/A   Clear